Location: Newark
(34.6283°N, 36.0776°E)
Time: 06:15:50
(UTC+00:00)

Courier 1B Rocket - Visible Passes

Search period start: 17 September 2019 00:00
Search period end: 27 September 2019 00:00
Orbit: 920 x 1202 km, 28.2° (Epoch: 15 September)

Date Brightness Start Highest point End Pass type
(mag) Time Alt. Az. Time Alt. Az. Time Alt. Az.
17 Sep 5.5 16:06:53 10° WSW 16:13:25 50° S 16:19:31 10° ESE visible
17 Sep 5.8 18:00:33 10° W 18:05:53 35° SSW 18:05:53 35° SSW visible
18 Sep 5.6 16:59:16 10° W 17:05:33 43° S 17:08:35 26° SE visible
18 Sep 7.2 18:53:34 10° WSW 18:54:57 15° WSW 18:54:57 15° WSW visible
19 Sep 5.7 15:58:00 10° WSW 16:04:37 48° S 16:10:49 10° ESE visible
19 Sep 6.1 17:51:59 10° WSW 17:57:33 29° SSW 17:57:41 29° SSW visible
20 Sep 6.0 16:50:33 10° W 16:56:42 36° SSW 17:00:26 20° SE visible
20 Sep 7.3 18:45:43 10° WSW 18:46:48 13° SW 18:46:48 13° SW visible
21 Sep 5.9 15:49:11 10° W 15:55:48 44° SSW 16:01:59 10° ESE visible
21 Sep 6.5 17:43:37 10° WSW 17:48:36 22° SSW 17:49:36 21° SSW visible
22 Sep 6.4 16:41:56 10° WSW 16:47:48 30° SSW 16:52:27 14° SSE visible
23 Sep 6.9 17:35:41 10° WSW 17:39:36 16° SSW 17:41:43 14° S visible
24 Sep 6.8 16:33:31 10° WSW 16:38:49 23° SSW 16:43:52 10° SSE visible
25 Sep 7.4 17:29:14 10° SW 17:30:32 11° SSW 17:31:50 10° SSW visible
26 Sep 7.2 16:25:30 10° WSW 16:29:46 17° SSW 16:33:53 10° S visible
